Total_Precipitation_Accumulation
0.87 0.80 0.92 1.01 1.13 1.56 1.58 1.69 1.78 1.75 1.74 1.92 1.98 2.01 1.66 1.43 2.95 3.60 1.94 1.38 1.84 2.10 1.55 0.84 0.82 1.31 0.98 0.50 0.14 0.13 0.12 0.21 0.55 0.97 0.56 0.56 0.49 0.38 0.21 0.05 0.08 0.12 0.22 0.28 0.60 0.76 0.52
0.80 0.87 0.97 1.07 1.09 1.14 1.36 1.80 1.77 1.64 1.58 1.63 1.59 1.35 1.43 1.63 1.71 1.36 1.04 1.24 1.70 2.13 1.26 0.81 0.92 1.00 0.66 0.28 0.03 0.03 0.15 0.36 0.53 1.00 0.69 0.65 0.64 0.37 0.27 0.11 0.12 0.04 0.11 0.26 0.90 0.93 0.59
0.73 0.89 1.02 1.01 0.98 1.07 1.25 1.34 1.44 1.58 1.74 1.65 1.68 1.28 1.16 1.04 0.97 0.83 0.94 1.43 1.59 1.25 0.71 0.61 0.90 0.68 0.49 0.17 0.04 0.08 0.13 0.29 0.42 0.98 0.77 0.66 1.12 0.82 0.50 0.29 0.12 0.11 0.23 0.43 0.93 1.08 1.06
0.72 0.83 0.91 1.05 1.11 1.06 1.04 1.10 1.16 1.14 1.25 1.28 1.17 0.94 0.85 0.87 1.20 1.41 1.44 1.45 1.06 0.93 0.63 0.59 0.92 0.85 0.32 0.02 0.04 0.02 0.11 0.31 0.44 0.79 1.09 1.01 1.75 1.06 0.74 0.36 0.42 0.49 0.51 0.52 0.50 0.95 1.32
0.73 0.79 0.92 1.01 1.09 1.13 1.11 1.12 1.17 1.16 1.22 1.12 0.90 0.76 0.85 1.04 1.23 1.44 1.81 1.20 0.97 0.80 0.67 0.89 0.90 0.68 0.22 0.06 0.07 0.02 0.11 0.37 0.42 0.73 1.21 1.63 2.48 1.56 1.05 0.72 0.77 0.68 0.36 0.23 0.49 0.59 1.15
0.76 0.80 0.83 0.84 0.91 1.04 0.95 1.01 1.22 1.27 1.22 1.06 1.03 1.17 1.28 1.26 1.67 1.87 1.41 1.18 0.94 0.92 0.91 1.11 1.12 0.76 0.21 0.07 0.12 0.08 0.12 0.44 0.58 0.96 1.95 2.64 3.78 1.98 1.10 0.84 0.54 0.32 0.24 0.18 0.43 0.61 0.88
0.68 0.69 0.69 0.68 0.78 0.86 0.92 0.98 0.98 1.09 1.02 0.94 0.92 1.26 1.85 2.81 2.56 1.59 1.45 1.83 1.43 1.30 1.04 0.72 0.47 0.25 0.23 0.19 0.32 0.31 0.22 0.57 1.05 1.65 2.25 2.14 3.44 1.55 0.66 0.29 0.17 0.27 0.15 0.14 0.24 0.39 0.55
0.74 0.73 0.65 0.71 0.85 0.94 0.97 0.97 1.01 1.05 1.04 0.94 0.92 1.00 1.45 2.56 1.92 1.58 1.63 1.41 0.70 0.64 0.74 0.30 0.21 0.12 0.11 0.29 0.56 0.59 0.32 1.02 1.39 1.83 2.34 2.24 1.72 0.65 0.56 0.41 0.21 0.47 0.28 0.26 0.42 0.42 0.34
0.73 0.65 0.65 0.78 0.76 0.84 0.80 0.87 1.00 1.06 0.95 0.91 0.94 0.98 1.26 1.72 1.46 1.55 1.43 0.91 0.37 0.72 1.23 0.68 0.46 0.33 0.26 0.44 0.60 0.64 0.50 1.12 1.48 1.87 2.19 1.80 1.26 0.79 0.89 0.54 0.33 0.29 0.18 0.29 0.62 0.61 0.35
0.77 0.67 0.80 0.79 0.85 0.87 0.91 1.09 1.15 0.99 0.95 0.89 0.88 1.03 1.34 1.34 1.51 1.50 1.56 0.99 0.86 1.37 2.03 1.07 0.81 0.77 0.67 0.88 1.00 0.67 0.63 1.44 1.84 1.76 1.77 1.80 1.16 1.09 1.15 0.60 0.24 0.16 0.15 0.56 0.50 0.59 0.51
1.06 0.88 0.89 0.83 0.90 1.02 1.06 1.29 1.22 1.09 0.88 0.79 0.89 1.18 1.77 1.58 1.69 1.44 1.60 1.27 1.52 1.92 1.91 0.74 0.91 1.02 0.87 1.04 0.86 1.06 0.69 1.48 1.50 1.72 2.06 1.73 1.27 1.56 1.20 0.61 0.23 0.19 0.19 0.45 0.62 0.79 0.83
1.32 1.01 1.17 1.16 1.10 1.04 1.11 1.25 1.20 1.08 0.98 0.93 1.14 1.26 1.85 1.48 1.49 1.01 1.13 1.81 2.20 2.24 1.64 1.56 1.28 1.40 0.99 0.67 0.75 0.78 0.93 1.32 1.37 2.26 1.83 1.29 1.55 1.48 0.84 0.69 0.35 0.30 0.42 0.66 0.96 1.15 1.32
1.55 1.37 1.24 1.25 1.29 1.25 1.23 1.10 1.01 1.12 1.22 1.38 1.38 1.35 1.80 1.23 1.38 0.98 1.23 2.16 2.29 1.24 0.98 1.37 1.70 1.33 0.60 0.53 0.55 0.94 1.31 0.96 1.52 2.07 2.35 1.95 1.66 1.17 0.84 1.13 1.01 1.32 1.57 1.90 1.72 1.61 0.96
1.71 1.49 1.51 1.49 1.41 1.40 1.41 1.20 1.00 1.16 1.54 1.54 1.27 1.73 1.55 1.09 0.98 1.56 1.42 1.64 1.42 0.75 0.98 0.73 0.89 0.68 0.75 0.55 0.80 0.76 1.11 0.65 0.71 1.02 1.37 1.70 1.97 1.43 1.10 1.31 1.86 1.40 1.19 1.37 0.89 0.61 0.38
1.84 1.74 1.57 1.68 1.57 1.52 1.60 1.56 1.38 1.40 1.42 1.64 1.84 1.81 1.86 1.37 1.20 1.68 1.78 1.39 1.22 1.05 1.00 0.88 0.64 0.55 0.72 0.33 0.53 0.61 0.61 0.40 0.48 0.58 0.81 0.78 1.07 0.69 0.65 0.67 1.08 1.05 0.98 0.70 0.87 0.35 0.45
2.14 2.21 2.00 1.82 1.87 1.83 1.71 1.86 1.89 1.71 1.68 1.77 2.40 2.08 2.10 1.24 1.23 1.78 1.96 1.18 1.15 1.17 0.65 0.30 0.40 0.22 0.15 0.21 0.36 0.38 0.33 0.14 0.27 0.25 0.36 0.52 0.93 0.81 0.74 0.83 0.90 0.63 0.39 0.62 1.32 0.77 0.43
2.06 1.96 1.88 2.02 2.10 1.82 1.58 2.04 1.90 1.78 1.81 1.92 2.17 2.45 2.01 1.43 1.67 2.14 1.58 0.94 0.85 0.64 0.39 0.22 0.11 0.13 0.13 0.13 0.33 0.28 0.27 0.11 0.14 0.11 0.42 1.00 1.03 1.01 1.12 1.09 0.80 0.66 0.65 0.52 0.61 0.34 0.29
1.63 1.80 1.77 1.86 2.01 1.94 1.82 1.79 1.63 1.74 2.45 2.11 1.88 2.26 1.58 2.03 2.35 1.53 0.81 0.90 0.92 0.53 0.21 0.18 0.11 0.16 0.15 0.14 0.30 0.23 0.19 0.13 0.09 0.10 0.44 0.87 1.35 1.22 0.74 0.22 0.18 0.31 0.31 0.24 0.96 0.59 0.48
1.51 1.82 1.95 1.97 1.89 1.83 1.85 1.62 1.16 1.31 2.00 1.92 1.91 1.88 2.47 1.42 1.24 0.76 0.69 0.85 0.59 0.19 0.19 0.21 0.06 0.06 0.12 0.17 0.36 0.19 0.13 0.06 0.05 0.09 0.58 0.95 2.02 1.67 1.17 0.83 0.65 0.89 0.62 0.54 1.06 2.02 1.27
1.89 2.35 2.65 2.35 2.12 1.72 1.45 1.19 0.99 1.11 1.57 1.62 1.45 1.89 3.29 2.08 0.55 0.57 1.01 1.13 0.79 0.25 0.19 0.25 0.13 0.09 0.13 0.14 0.25 0.39 0.21 0.16 0.14 0.20 0.52 1.55 1.64 1.40 1.31 1.03 1.12 1.04 0.68 0.81 1.91 3.36 1.17
1.82 2.07 2.40 2.31 1.93 1.81 1.44 1.19 1.40 1.59 1.54 1.18 0.86 0.68 0.84 0.89 0.43 0.24 0.68 0.85 0.84 0.67 0.44 0.27 0.17 0.15 0.24 0.31 0.24 0.21 0.17 0.14 0.09 0.12 0.49 1.63 2.08 1.57 1.01 0.54 1.15 0.94 0.62 0.60 1.59 1.70 2.00
1.76 2.36 2.86 3.02 2.93 2.11 1.66 1.45 1.66 1.86 1.52 1.02 0.59 0.40 0.19 0.08 0.06 0.06 0.39 0.86 0.91 0.78 0.61 0.33 0.17 0.10 0.10 0.21 0.28 0.33 0.30 0.31 0.35 0.23 0.49 1.24 2.06 1.42 0.96 0.29 0.49 0.68 0.55 0.51 0.49 0.70 1.03
1.24 1.88 2.02 2.26 2.93 2.78 2.16 1.67 1.63 1.79 1.88 1.16 0.66 0.40 0.24 0.22 0.11 0.10 0.13 0.44 0.69 0.73 0.57 0.33 0.27 0.26 0.09 0.07 0.14 0.16 0.22 0.28 0.33 0.29 0.60 1.29 1.47 1.96 1.82 0.51 0.58 1.09 0.52 0.30 0.32 0.41 0.58
1.72 2.09 2.46 1.92 1.77 1.60 1.66 1.46 1.54 1.69 1.84 1.27 0.72 0.68 0.50 0.33 0.15 0.09 0.09 0.30 0.48 0.39 0.60 0.32 0.26 0.27 0.13 0.15 0.17 0.12 0.10 0.09 0.12 0.17 0.28 0.78 1.20 2.31 2.24 1.24 1.89 0.86 0.43 0.31 0.35 0.46 0.59
1.31 1.77 2.29 2.67 2.18 1.22 0.90 1.01 1.22 0.94 1.09 1.05 0.62 0.94 0.95 0.56 0.10 0.05 0.08 0.30 0.36 0.33 0.50 0.46 0.28 0.14 0.18 0.40 0.65 0.60 0.32 0.27 0.20 0.11 0.18 0.34 0.93 2.22 2.44 1.67 1.10 0.57 0.49 0.54 0.53 0.54 0.56
0.95 1.24 1.47 1.62 1.97 1.40 0.85 0.72 0.78 0.73 0.89 1.20 0.69 0.93 1.23 1.02 0.22 0.03 0.07 0.20 0.48 0.35 0.35 0.36 0.22 0.12 0.24 0.51 0.99 1.17 0.65 0.34 0.29 0.20 0.13 0.25 0.44 1.62 1.88 2.18 1.11 0.52 0.34 0.43 0.61 0.70 0.44
1.00 1.23 1.43 1.33 1.20 1.06 0.92 0.79 0.69 0.76 0.88 1.19 0.80 0.56 1.10 1.05 0.20 0.02 0.06 0.16 0.44 0.47 0.56 0.52 0.40 0.32 0.45 0.96 1.63 1.27 0.70 0.25 0.32 0.19 0.18 0.30 0.71 1.54 1.36 2.57 1.55 0.67 0.48 0.65 1.30 1.02 0.56
1.28 1.18 1.33 1.40 1.28 1.11 0.85 0.73 0.70 0.82 0.97 1.19 0.83 0.52 1.05 1.11 0.28 0.09 0.12 0.21 0.40 0.57 0.69 0.81 0.97 0.74 0.83 1.27 1.27 0.78 0.80 0.53 0.48 0.33 0.37 0.63 1.12 1.02 1.37 2.10 1.38 0.54 0.65 1.07 1.27 1.21 1.05
2.19 1.86 1.56 1.36 1.25 1.08 0.88 0.77 0.86 0.88 1.13 1.46 1.04 0.49 1.01 1.91 0.72 0.20 0.15 0.07 0.15 0.41 0.72 1.08 1.21 0.95 1.68 1.91 2.01 2.39 2.14 1.55 0.94 0.79 0.16 0.53 0.69 1.00 1.33 1.23 1.01 0.95 1.08 1.36 1.30 1.06 0.79